Regional Weather Roundup
Issued by NWS

Home | Current Version | Previous Version | Text Only | Print | Product List | Glossary Off
Versions: 1 2 3 4 5 6 7 8 9 10 11 12 13 14 15 16 17 18 19 20 21 22 23 24 25 26 27 28 29 30 31 32 33 34 35 36 37 38 39 40 41 42 43 44 45 46 47 48 49 50

646
ASUS43 KLSX 242110
RWRMO

WEATHER SUMMARY FOR MISSOURI
NATIONAL WEATHER SERVICE SPRINGFIELD MO
400 PM CDT THU MAY 24 2018

NOTE: "FAIR" INDICATES FEW OR NO CLOUDS BELOW 12,000 FEET WITH NO
       SIGNIFICANT WEATHER AND/OR OBSTRUCTIONS TO VISIBILITY.
       CURRENT SKY AND/OR WEATHER CONDITIONS ARE NOT AVAILABLE FOR
       CHILLICOTHE AND FARMINGTON.

MOZ001>031-035>038-043-044-053-054-242200-
...NORTHERN AND WESTERN MISSOURI...

CITY           SKY/WX    TMP DP  RH WIND       PRES   REMARKS
KANSAS CTY INT PTSUNNY   85  68  56 S14       30.03F
KANSAS C DTWN  FAIR      85  66  53 SE13      30.01F
LEE`S SUMMIT   FAIR      84  67  56 S12G20    30.04F
ST JOSEPH      FAIR      88  67  49 S14G21    29.99F HX  91
CHILLICOTHE      N/A     84  65  52 S6        30.03F
KIRKSVILLE     FAIR      87  67  51 S8G17     30.05F HX  90

$$
MOZ066>068-077>081-088>096-101>105-242200-
...SOUTHWEST MISSOURI...

CITY           SKY/WX    TMP DP  RH WIND       PRES   REMARKS
SPRINGFIELD    FAIR      83  66  56 S6        30.05F
JOPLIN         FAIR      81  71  71 SE9       30.04F
BRANSON        LGT RAIN  73  64  73 S9        30.09F

$$
MOZ032>034-039>042-045>050-055>058-069>072-242200-
...CENTRAL MISSOURI...

CITY           SKY/WX    TMP DP  RH WIND       PRES   REMARKS
COLUMBIA       FAIR      85  68  56 S7        30.06F
JEFFERSON CITY FAIR      87  64  46 S8        30.04F
ROLLA          FAIR      85  64  49 SE5       30.08F
SEDALIA        FAIR      84  67  56 SE13      30.06F
WHITEMAN AFB   PTSUNNY   85  67  55 S12       30.01F
WARRENSBURG    FAIR      86  64  48 S9        30.03F
OSAGE BEACH    CLOUDY    84  70  62 S5        30.06F

$$
MOZ051-052-059>065-242200-
...EAST CENTRAL MISSOURI...

CITY           SKY/WX    TMP DP  RH WIND       PRES   REMARKS
ST LOUIS INTL  PTSUNNY   87  61  41 SE12      30.07F
SPIRIT OF STL  FAIR      89  61  38 CALM      30.05F
ST CHARLES     FAIR      87  64  46 SE7       30.05F

$$
MOZ072>076-082>087-097>100-106>115-242200-
...SOUTH CENTRAL AND SOUTHEAST MISSOURI...

CITY           SKY/WX    TMP DP  RH WIND       PRES   REMARKS
CAPE GIRARDEAU FAIR      88  64  44 VRB6      30.03F
FARMINGTON     FAIR      85  64  49 S5        30.08F
POPLAR BLUFF   PTSUNNY   86  65  49 CALM      30.03F
WEST PLAINS    FAIR      84  66  54 S5        30.08F

$$




USA.gov is the U.S. government's official web portal to all federal, state and local government web resources and services.